Location: Franzen
(48.6167°N, 15.3833°E)
Time: 04:56:30
(UTC+00:00)

Altair - Pass Details

Date: 12 August 2021
Orbit: 1501 x 1682 km, 47.2° (Epoch: 21 September)

Event Time Altitude Azimuth Distance (km) Brightness Sun altitude
Rises 18:55:10 0° 174° (S) 4,859 9.8 -6.2°
Reaches altitude 10° 19:00:31 10° 151° (SSE) 3,840 9.1 -7.0°
Maximum altitude 19:04:46 14° 125° (SE) 3,520 8.7 -7.6°
Drops below altitude 10° 19:08:57 10° 98° (E) 3,784 9.0 -8.2°
Sets 19:14:05 0° 75° (ENE) 4,733 9.7 -8.9°
